www.pogodaiklimat.ru

Погода и климат >> Архив погоды >> Россия >> Приморский край >> Ольга


ПОГОДА в Ольге

  • Прогноз погоды в Ольге
  • Монитор погоды в Ольге

АРХИВ ПОГОДЫ в Ольге

Время (UTC), дата Ветер
(напр.,м/с)
 
Видим.   Явления Облачность Т
(С)
Тd
(С)
f
(%)
Тe
(С)
Тes
(С)
Комфортность P
(гПа)
Po
(гПа)
Тmin
(С)
Tmax
(С)
R
(мм)
R24
(мм)
S
(см)
09 19.04 З 4-11
{15}
50 км ясно +10.7 -19.7 10 +9 +9 1010.4 1008.0 +12.5
12 19.04 СЗ 1
{12}
10 км ясно +7.0 -18.6 14 +7 +7 1012.4 1010.0
15 19.04 штиль 0 10 км ясно -3.3 -12.2 50 -4 -4 1014.6 1012.0
18 19.04 СВ 1 10 км ясно -6.6 -10.8 72 -9 -9 1014.6 1012.0
21 19.04 СВ 1 50 км ясно -7.0 -10.4 77 -9 -9 1014.1 1011.6 -9.1
00 20.04 З 2 50 км 3/0
[Ac trans Ci fib]
+8.7 -16.5 15 +8 +16 1013.5 1011.1
03 20.04 Ю 6 50 км 7 баллов +10.4 -15.1 15 +8 +10 1011.7 1009.3
06 20.04 Ю 5 50 км 10 баллов +8.9 -7.3 31 +6 +6 1011.7 1009.3
09 20.04 В 1
{11}
50 км 10/0
[Ac trans Cs]
+4.9 -2.9 57 +4 +4 1010.5 1008.0 +12.3
12 20.04 СВ 1 10 км 10/0
[Cs]
+0.2 -3.2 78 -2 -2 1011.5 1009.1
15 20.04 СВ 1 10 км 2 балла -1.6 -3.6 86 -4 -4 1013.2 1010.7
18 20.04 штиль 0 10 км 10 баллов -3.0 -4.3 91 -4 -4 1011.9 1009.3
21 20.04 штиль 0 20 км 10/0
[Ac und]
-0.4 -1.7 91 -2 -1 1011.7 1009.3 -3.8
00 21.04 штиль 0 50 км 9/0
[Ac trans Ci fib]
+6.8 -2.2 53 +6 +16 опасность
простуды
1011.8 1009.4
03 21.04 ЮВ 4 50 км 10 баллов +8.0 -1.0 53 +5 +5 1011.7 1009.3
06 21.04 В 1 50 км 10 баллов +10.3 -0.8 46 +10 +10 1010.4 1008.0
09 21.04 З 3 50 км 8/0
[Ac trans Ci fib]
+15.2 -15.1 11 +15 +15 1010.4 1008.0 +15.2
12 21.04 СВ 1 10 км 4/0
[Ac trans Ci fib]
+2.8 -11.0 35 +2 +2 1011.9 1009.5
15 21.04 штиль 0 10 км ясно -2.5 -7.6 68 -3 -3 1014.6 1012.0
18 21.04 СВ 1 10 км ясно -2.8 -8.9 63 -5 -5 1015.9 1013.3
21 21.04 штиль 0 20 км ясно -2.9 -9.2 62 -4 -3 1016.1 1013.6 -4.8
00 22.04 ЮЗ 2 20 км ясно +12.0 -10.8 19 +12 +21 1016.6 1014.3
03 22.04 С 1 20 км ясно +16.7 -13.9 11 +18 +37 опасность
простуды
1017.1 1014.7
06 22.04 Ю 4 20 км 4 балла +14.4 -11.9 15 +14 +17 1017.1 1014.7
09 22.04 Ю 3
{12}
50 км 3/0
[Ci fib]
+13.6 -15.3 12 +13 +13 1017.1 1014.7 +17.3
12 22.04 СВ 1 10 км ясно +3.0 -12.1 32 +2 +2 1018.5 1016.0
15 22.04 штиль 0 10 км 9 баллов -0.3 -9.4 50 -1 -1 1018.5 1016.0
21 22.04 В 1 10 км в посл. час ливневой дождь 10/6 1000 м
[Sc diur, vesp Ac trans]
+2.8 +0.7 86 +1 +1 1016.1 1013.7 -2.1 0.7
00 23.04 ЮЗ 4 4000 м слаб. ливневой дождь 10/10 300 м
[Cb cap]
+7.2 +3.9 80 +4 +4 1014.8 1012.5
03 23.04 В 1 20 км 10 баллов +9.6 +6.3 80 +9 +9 1014.4 1012.0
06 23.04 Ю 4 20 км 10 баллов +10.0 +3.1 62 +8 +8 1011.7 1009.3
09 23.04 СВ 2 20 км 10/9 1000 м
[Sc Ac trans]
+8.7 +4.3 74 +7 +7 1010.4 1008.0 +12.0 5
12 23.04 С 1 10 км 1/0
[Ac trans]
+4.5 +3.3 92 +3 +3 1009.1 1006.7
15 23.04 СВ 1 10 км 9 баллов +1.2 +0.5 95 -1 -1 1010.5 1008.0
18 23.04 СВ 1 10 км 2 балла +1.0 +0.6 97 -1 -1 1009.2 1006.7
21 23.04 штиль 0 20 км 10/8 1000 м
[Sc Ac trans]
+3.4 +2.7 95 +2 +2 1008.7 1006.3 +0.1
00 24.04 З 1 20 км 10/5 1000 м
[Sc Ac trans]
+13.5 +6.4 62 +14 +16 1009.1 1006.8
03 24.04 СЗ 1 50 км 10 баллов +17.2 -1.0 29 +18 +18 1009.1 1006.7
06 24.04 З 3 50 км 10 баллов +18.4 -5.0 20 +19 +19 1009.1 1006.7
09 24.04 С 4 20 км 10/0
[Ac und]
+12.2 +0.6 45 +11 +11 1009.1 1006.7 +19.0
12 24.04 Ю 1 10 км в посл. час ливневой дождь 10/6 1000 м
[Sc Ac und]
+7.3 +2.7 73 +7 +7 1010.1 1007.7
15 24.04 З 1 10 км 10 баллов +7.3 -1.4 54 +7 +7 1011.8 1009.3
18 24.04 СВ 1 10 км 2 балла +0.6 -2.4 80 -1 -1 1010.5 1008.0
21 24.04 ЮЗ 1 20 км 4/0
[Ac lent Ci fib]
-0.6 -2.6 86 -3 -2 1011.0 1008.6 -2.2 0.0
00 25.04 З 4 50 км 6/0
[Ac trans Ci fib]
+11.2 -5.3 31 +10 +15 1011.0 1008.6
03 25.04 С 4 50 км 9 баллов +14.4 -5.9 24 +13 +15 1011.7 1009.3
06 25.04 Ю 3 50 км 10 баллов +14.3 -4.9 26 +14 +14 1010.4 1008.0
09 25.04 ЮВ 1 50 км 6/1 1000 м
[Sc Ac trans Ci fib]
+10.1 -8.1 27 +10 +11 1013.1 1010.7 +15.7
12 25.04 СВ 2 10 км 10/3 300 м
[St Ac trans]
+4.0 +1.6 84 +1 +1 1017.3 1014.9
15 25.04 С 3 10 км 10 баллов +3.8 +0.7 80 0 0 1019.8 1017.3
18 25.04 СВ 2 10 км 10 баллов +3.2 -0.4 77 0 0 1018.5 1016.0
21 25.04 С 3 20 км 10/3 300 м
[St Ac trans Ci fib]
+3.2 -0.6 76 -1 -0 1017.7 1015.3 +3.0
00 26.04 СВ 4 50 км 10/5 1000 м
[Sc Ac trans]
+4.6 -3.2 57 +1 +2 1018.3 1015.9
03 26.04 СВ 5 50 км 9 баллов +5.9 -7.0 39 +2 +3 1018.5 1016.0

 

Местоположение метеостанции Ольга (Приморский край, Россия): широта 43.75 долгота 135.30 высота над уровнем моря 20 м.

В архиве по умолчанию представлена погода в Ольге за последнюю неделю. Архивные данные за месяц целиком и за предыдущие месяцы, начиная с января 2011 года, Вы можете получить, выбрав интересующий диапазон дат из раскрывающегося списка и нажав кнопку "Ввод!".


*Определитесь, кто Вы:
робот инопланетянин человек

Внимание! Время в таблицах - всемирное. Для получения местного времени необходимо прибавить поправку, которая равна 10 ч.

Смотрите также архив погоды в соседних городах и на ближайших метеорологических станциях:

Погода в Дальнегорске (Приморский край, Россия) (31 км)
Погода в Богополе (Приморский край, Россия) (56 км)
Погода в Кавалерово (Приморский край, Россия) (61 км)
Погода в Рудной Пристани (Приморский край, Россия) (80 км)
Погода в Лучегорске (Приморский край, Россия) (81 км)
Погода в Лазо (Приморский край, Россия) (127 км)
Погода в Чугуевке (Приморский край, Россия) (128 км)
Погода в Преображении (Приморский край, Россия) (148 км)
Погода в Тернее (Приморский край, Россия) (173 км)
Погода в Анучино (Приморский край, Россия) (186 км)

Пояснения к столбцам:

Ветер - указаны скорость ветра в м/с - средняя за 10 мин, порывы в срок и между сроками (в фигурных скобках) и направление, откуда дует ветер: С - северный, СВ - северо-восточный, В - восточный, ЮВ - юго-восточный, Ю - южный, ЮЗ - юго-западный, З - западный, СЗ - северо-западный.
Видимость - горизонтальная дальность видимости в метрах или километрах. При видимости от 1 до 10 км при отсутствии осадков обычно наблюдается дымка, при ухудшении видимости до 1 км и менее - туман. В сухую погоду видимость может ухудшаться дымом, пылью или мглою.
Явления - указаны атмосферные явления, наблюдавшиеся в срок или в последний час перед сроком; фигурными скобками обозначены явления, наблюдавшиеся между сроками (за 1-3 часа до срока); квадратными скобками обозначены град или гололедные отложения с указанием их диаметра в мм.
Облачность - указаны через наклонную черту общая и нижняя облачность в баллах и высота нижней границы облаков в метрах; квадратными скобками обозначены формы облаков: Ci - перистые, Cs - перисто-слоистые, Cc - перисто-кучевые, Ac - высококучевые, As - высокослоистые, Sc - слоисто-кучевые, Ns - слоисто-дождевые, Cu - кучевые, Cb - кучево-дождевые. Подробнее классификацию облаков см. в Атласе облаков (PDF).
T - Температура воздуха - температура, измеренная на высоте 2 м над землей.
Td - Температура точки росы - температура, при понижении до которой содержащийся в воздухе водяной пар достигнет насыщения.
f - Относительная влажность воздуха - влажноcть воздуха, измеренная на высоте 2 м над землей.
Te - Эффективная температура - температура, которую ощущает одетый по сезону человек в тени. Характеристика душности погоды. При расчете учитывается влияние влажности воздуха и скорости ветра на теплоощущения человека.
Tes - Эффективная температура на солнце - температура, которую ощущает человек, с поправкой на солнечный нагрев. Характеристика знойности погоды. Зависит от высоты солнца над горизонтом, облачности и скорости ветра. Ночью, в пасмурную погоду, а также при ветре 12 м/с и более поправка равна нулю.
P - Атмосферное давление - приведенное к уровню моря атмосферное давление.
Po - Атмосферное давление - измеренное на уровне метеостанции атмосферное давление.
Tmin - Минимальная температура - минимум температуры воздуха на высоте 2 м над землей.
Tmax - Максимальная температура - максимум температуры воздуха на высоте 2 м над землей.
R - Количество осадков - Количество выпавших осадков за период времени, мм. При наведении курсора мыши на число - период времени, за который выпало указанное количество осадков.
R24 - Количество осадков - Количество выпавших осадков за 24 часа, мм.
S - Снежный покров - Высота снежного покрова, см. При наведении курсора мыши на число - состояние снежного покрова и степень покрытия местности в баллах.